This is the latest recevied weather packets stored in our database for station/object W3TMB. If no packets are shown the sender has not sent any weather packets the latest 10 day(s).
| Time | Temp. | Humidity | Pressure | Rain* | Wind** | Luminosity | Snow |
|---|---|---|---|---|---|---|---|
| 1777765736 | 8.89° C | 62% | 1011 hPa | 0 mm | - | 3 W/m² | - |
| 1777765433 | 8.89° C | 62% | 1011.2 hPa | 0 mm | - | 4 W/m² | - |
| 1777765130 | 8.89° C | 62% | 1011 hPa | 0 mm | - | 4 W/m² | - |
| 1777764826 | 8.89° C | 62% | 1010.9 hPa | 0 mm | - | 3 W/m² | - |
| 1777764523 | 8.89° C | 63% | 1010.9 hPa | 0 mm | - | 4 W/m² | - |
| 1777764219 | 8.89° C | 62% | 1010.7 hPa | 0 mm | - | 8 W/m² | - |
| 1777763916 | 8.89° C | 62% | 1010.9 hPa | 0 mm | - | 6 W/m² | - |
| 1777763614 | 8.89° C | 64% | 1010.8 hPa | 0 mm | - | 7 W/m² | - |
| 1777763312 | 8.89° C | 63% | 1011.1 hPa | 0 mm | - | 9 W/m² | - |
| 1777763010 | 9.44° C | 65% | 1010.9 hPa | 0 mm | - | 6 W/m² | - |
| 1777762706 | 9.44° C | 65% | 1010.9 hPa | 0 mm | - | 8 W/m² | - |
| 1777762403 | 9.44° C | 64% | 1010.7 hPa | 0 mm | - | 10 W/m² | - |
| 1777762100 | 9.44° C | 61% | 1010.8 hPa | 0 mm | - | 22 W/m² | - |
| 1777761796 | 9.44° C | 61% | 1010.7 hPa | 0 mm | - | 35 W/m² | - |
| 1777761494 | 10° C | 61% | 1010.6 hPa | 0 mm | - | 34 W/m² | - |
| 1777761192 | 10° C | 61% | 1010.5 hPa | 0 mm | - | 34 W/m² | - |
| 1777760889 | 10° C | 61% | 1010.5 hPa | 0 mm | - | 39 W/m² | - |
| 1777760586 | 10° C | 59% | 1010.5 hPa | 0 mm | - | 38 W/m² | - |
| 1777760282 | 10° C | 58% | 1010.5 hPa | 0 mm | - | 39 W/m² | - |
| 1777759978 | 10° C | 57% | 1010.5 hPa | 0 mm | - | 51 W/m² | - |
| 1777759675 | 10.56° C | 56% | 1010.3 hPa | 0 mm | - | 78 W/m² | - |
| 1777759371 | 10.56° C | 57% | 1010.5 hPa | 0 mm | - | 105 W/m² | - |
| 1777759068 | 10.56° C | 56% | 1010.4 hPa | 0 mm | - | 109 W/m² | - |
| 1777758765 | 10.56° C | 55% | 1010.4 hPa | 0 mm | - | 105 W/m² | - |
| 1777758462 | 10.56° C | 55% | 1010.2 hPa | 0 mm | - | 106 W/m² | - |
* Rain latest hour (hover to see other rain measurements)
** Current wind speed in m/s (hover to see current wind gust speed)